Location: ?????????
(38.0736°N, 23.2119°E)
Time: 09:59:54
(UTC+00:00)

Cosmos 304 Rocket - Visible Passes

Search period start: 24 July 2024 00:00
Search period end: 03 August 2024 00:00
Orbit: 673 x 682 km, 74.0° (Epoch: 23 July)

Date Brightness Start Highest point End Pass type
(mag) Time Alt. Az. Time Alt. Az. Time Alt. Az.
24 Jul 3.8 00:27:37 10° NNW 00:32:26 73° ENE 00:32:45 70° ESE visible
24 Jul 5.7 23:24:24 10° N 23:28:10 22° ENE 23:29:03 21° ENE visible
25 Jul 4.7 01:04:00 10° NW 01:07:22 32° WNW 01:07:22 32° WNW visible
25 Jul 4.3 23:59:41 10° NNW 00:03:46 57° NNE 00:03:46 57° NNE visible
26 Jul 5.9 22:56:36 10° NNE 23:00:10 20° ENE 23:00:14 20° ENE visible
27 Jul 5.1 00:35:57 10° NW 00:38:33 28° NW 00:38:33 28° NW visible
27 Jul 4.9 23:31:45 10° N 23:35:06 41° NNE 23:35:06 41° NNE visible
28 Jul 6.0 22:28:49 10° NNE 22:31:42 18° NE 22:31:42 18° NE visible
29 Jul 5.5 00:07:54 10° NNW 00:10:02 24° NW 00:10:02 24° NW visible
29 Jul 5.3 23:03:48 10° N 23:06:41 33° NNE 23:06:41 33° NNE visible
30 Jul 6.1 22:01:02 10° NNE 22:03:22 16° NE 22:03:22 16° NE visible
30 Jul 5.7 23:39:51 10° NNW 23:41:42 23° NW 23:41:42 23° NW visible
31 Jul 5.6 22:35:51 10° N 22:38:26 29° NNE 22:38:26 29° NNE visible
01 Aug 6.2 21:33:17 10° NNE 21:35:12 14° NE 21:35:12 14° NE visible
01 Aug 5.8 23:11:47 10° NNW 23:13:32 22° NNW 23:13:32 22° NNW visible
02 Aug 5.7 22:07:54 10° N 22:10:19 26° NNE 22:10:19 26° NNE visible
